Total_Precipitation_Accumulation
1.35 1.38 1.29 1.48 1.57 1.60 1.66 1.73 1.67 1.58 1.57 1.39 1.39 1.40 1.41 1.27 1.36 1.46 1.81 2.18 2.67 3.36 3.53 3.19 2.83 2.57 2.40 2.30 2.36 2.38 2.48 2.57 2.68 2.71 2.74 3.12 3.31 2.91 2.87 2.88 2.94 3.33 3.75
1.19 1.41 1.33 1.33 1.44 1.63 1.75 1.76 1.70 1.77 1.76 1.54 1.52 1.56 1.53 1.46 1.49 1.54 1.70 1.70 1.85 2.40 3.02 3.35 3.38 3.13 2.80 2.61 2.44 2.47 2.63 2.62 2.55 2.57 2.63 2.89 3.13 2.84 2.82 2.93 2.92 3.18 3.53
1.12 1.38 1.32 1.23 1.25 1.40 1.60 1.83 1.90 1.90 1.69 1.60 1.62 1.63 1.52 1.49 1.51 1.69 1.73 1.75 1.65 1.72 2.17 2.62 3.08 3.14 3.12 2.98 2.68 2.55 2.67 2.69 2.64 2.58 2.58 2.64 2.90 2.88 2.90 3.00 2.92 3.07 3.22
0.93 1.20 1.28 1.20 1.19 1.36 1.62 1.89 2.08 2.13 1.93 1.89 1.92 1.84 1.62 1.55 1.51 1.65 1.71 1.78 1.88 1.66 1.65 1.78 2.12 2.52 2.75 2.82 2.87 2.79 2.82 2.74 2.55 2.49 2.37 2.34 2.56 2.73 2.88 2.88 2.83 2.97 3.10
0.88 1.13 1.36 1.39 1.36 1.50 1.63 1.65 1.91 2.08 2.19 2.11 1.93 1.80 1.71 1.70 1.67 1.62 1.75 1.76 1.82 1.76 1.61 1.33 1.36 1.65 2.02 2.38 2.63 2.76 2.94 2.87 2.61 2.48 2.24 2.15 2.28 2.55 2.86 2.61 2.61 2.74 3.01
1.07 1.29 1.55 1.58 1.65 1.71 1.80 2.00 2.30 2.33 2.26 2.26 2.03 1.77 1.62 1.65 1.71 1.81 1.81 1.79 1.84 1.69 1.54 1.37 1.24 1.10 1.37 1.75 2.14 2.50 2.74 2.87 2.77 2.73 2.44 2.14 2.14 2.34 2.68 2.58 2.55 2.67 2.92
1.26 1.48 1.67 1.91 2.03 1.92 1.94 2.19 2.49 2.63 2.42 2.25 2.36 2.21 2.01 1.81 1.78 1.73 1.74 1.81 1.84 1.78 1.66 1.59 1.49 1.34 1.31 1.37 1.58 2.00 2.36 2.66 2.81 2.93 2.81 2.45 2.27 2.27 2.37 2.30 2.31 2.60 2.98
1.36 1.37 1.63 1.82 1.92 2.02 2.05 2.16 2.47 2.82 2.59 2.30 2.53 2.96 2.74 2.51 2.01 1.66 1.79 1.83 1.88 1.83 1.73 1.57 1.57 1.47 1.43 1.56 1.26 1.32 1.77 2.32 2.79 3.00 2.89 2.68 2.52 2.28 2.30 2.22 2.13 2.29 2.61
1.72 1.66 1.68 1.78 1.86 2.03 2.17 2.22 2.29 2.65 2.72 2.49 2.45 3.07 3.06 2.85 2.61 2.09 1.74 1.80 1.92 1.97 1.93 1.83 1.69 1.62 1.52 1.67 1.50 1.17 1.33 1.65 2.23 2.74 2.98 2.88 2.67 2.39 2.31 2.26 2.18 2.27 2.37
2.03 2.02 2.01 2.08 2.00 1.98 2.06 2.05 2.06 2.32 2.67 2.72 2.54 2.39 2.36 2.47 2.82 2.56 2.00 1.84 1.87 1.88 1.98 1.85 1.85 1.89 1.84 1.77 1.66 1.33 1.09 1.21 1.72 2.45 2.98 2.93 2.74 2.58 2.42 2.35 2.21 2.18 2.25
2.64 2.59 2.47 2.29 2.07 2.00 2.05 2.08 2.11 2.23 2.37 2.54 2.52 2.35 2.31 2.27 2.14 2.34 2.32 2.10 1.90 1.77 1.87 1.90 1.89 1.90 1.97 1.92 1.82 1.49 1.12 0.96 1.19 1.85 2.54 2.75 2.74 2.64 2.56 2.47 2.31 2.15 2.00
2.64 2.56 2.34 2.05 1.87 1.83 1.91 2.04 2.05 2.13 2.15 2.24 2.23 2.11 2.12 2.11 2.08 2.24 2.17 2.18 2.14 1.77 1.62 1.69 1.75 1.80 1.77 1.78 1.63 1.71 1.37 1.05 0.98 1.31 1.84 2.28 2.54 2.69 2.67 2.74 2.57 2.33 2.10
1.99 1.99 1.93 1.88 1.77 1.68 1.76 1.99 2.07 2.10 2.09 2.09 2.04 1.97 2.01 1.88 1.93 2.23 2.33 2.24 2.12 1.78 1.59 1.50 1.55 1.59 1.51 1.61 1.70 1.84 1.57 1.31 1.12 1.15 1.40 1.67 1.92 2.23 2.62 2.90 3.01 2.88 2.71
1.74 1.75 1.77 1.78 1.70 1.66 1.68 1.81 1.93 2.05 2.04 1.98 1.91 2.03 2.05 1.85 1.92 1.99 2.11 2.32 2.19 1.93 1.70 1.44 1.37 1.33 1.39 1.47 1.67 1.88 1.42 1.34 1.19 1.08 1.08 1.23 1.46 1.66 1.99 2.43 2.81 2.94 2.95
1.39 1.46 1.56 1.64 1.58 1.55 1.57 1.71 1.85 1.88 1.96 2.03 2.04 2.05 2.06 1.97 1.98 2.01 2.17 2.31 2.33 2.10 1.85 1.58 1.42 1.27 1.34 1.39 1.62 1.53 1.34 1.35 1.23 1.13 1.08 1.08 1.18 1.36 1.59 1.71 1.85 1.98 2.16
1.28 1.29 1.24 1.24 1.21 1.26 1.27 1.37 1.55 1.65 1.69 1.78 1.81 1.86 1.89 1.85 1.94 1.96 2.06 2.20 2.21 2.15 1.99 1.70 1.49 1.40 1.45 1.36 1.51 1.41 1.43 1.59 1.39 1.21 1.10 1.06 1.08 1.16 1.24 1.28 1.30 1.30 1.35
0.98 1.01 0.92 0.90 0.97 1.01 0.96 1.05 1.15 1.25 1.35 1.45 1.46 1.51 1.58 1.57 1.73 1.78 1.89 2.02 2.09 2.08 1.86 1.62 1.47 1.47 1.51 1.53 1.50 1.41 1.41 1.44 1.37 1.26 1.10 1.01 1.02 1.06 1.11 1.18 1.19 1.15 1.14
0.72 0.73 0.68 0.65 0.72 0.86 0.89 0.97 1.01 1.01 1.11 1.24 1.32 1.37 1.36 1.37 1.49 1.57 1.67 1.75 1.91 1.99 1.91 1.72 1.55 1.45 1.34 1.41 1.59 1.61 1.59 1.49 1.49 1.52 1.38 1.22 1.14 1.10 1.05 1.12 1.19 1.14 1.10
0.66 0.65 0.59 0.59 0.61 0.70 0.84 0.91 0.93 0.91 0.93 0.96 1.03 1.06 1.11 1.21 1.37 1.42 1.44 1.55 1.71 1.80 1.91 1.79 1.64 1.54 1.38 1.34 1.55 1.54 1.58 1.76 1.65 1.72 1.82 1.62 1.38 1.22 1.10 1.12 1.19 1.17 1.09
0.61 0.61 0.55 0.52 0.59 0.69 0.77 0.87 0.89 0.85 0.84 0.88 0.92 0.90 0.89 0.95 1.09 1.25 1.33 1.50 1.67 1.82 1.90 1.83 1.75 1.69 1.59 1.46 1.56 1.70 1.75 1.82 1.82 1.63 1.65 1.63 1.60 1.48 1.29 1.16 1.21 1.26 1.24
0.54 0.54 0.51 0.52 0.56 0.61 0.66 0.82 0.85 0.84 0.87 0.83 0.85 0.87 0.89 0.89 0.92 1.00 0.99 1.19 1.40 1.65 1.76 1.82 1.81 1.81 1.72 1.64 1.55 1.72 1.82 1.93 2.01 1.95 1.82 1.64 1.61 1.46 1.34 1.28 1.26 1.29 1.34
0.52 0.52 0.50 0.51 0.51 0.48 0.72 0.82 0.82 0.84 0.91 0.94 0.91 0.89 0.86 0.85 0.94 0.94 0.91 0.94 1.09 1.26 1.42 1.53 1.59 1.62 1.66 1.74 1.84 1.86 1.86 1.91 1.95 1.94 1.81 1.82 1.76 1.64 1.46 1.28 1.30 1.32 1.34
0.49 0.51 0.51 0.50 0.50 0.49 0.55 0.59 0.68 0.78 0.91 0.95 0.90 0.98 1.01 0.90 0.93 0.97 1.02 0.95 0.88 0.92 1.08 1.27 1.38 1.42 1.51 1.59 1.84 1.88 1.89 1.91 1.79 1.81 1.69 1.75 1.69 1.56 1.47 1.40 1.41 1.33 1.34
0.48 0.49 0.56 0.54 0.48 0.44 0.48 0.48 0.55 0.65 0.78 0.82 0.82 0.91 1.14 1.16 1.05 1.05 1.11 1.15 1.02 0.86 0.87 0.93 1.11 1.28 1.35 1.54 1.89 2.10 2.06 1.83 1.74 1.76 1.64 1.64 1.57 1.44 1.38 1.33 1.40 1.30 1.28
0.45 0.44 0.47 0.51 0.48 0.44 0.46 0.48 0.51 0.58 0.67 0.68 0.72 0.84 0.98 1.09 1.07 1.08 1.04 1.10 1.12 0.98 0.94 0.97 0.95 1.06 1.24 1.43 1.73 2.02 2.12 2.05 1.83 1.74 1.59 1.50 1.47 1.45 1.48 1.40 1.35 1.36 1.27
0.48 0.50 0.49 0.46 0.44 0.43 0.46 0.49 0.53 0.53 0.57 0.54 0.59 0.77 0.97 0.94 0.94 1.01 1.03 1.12 1.22 1.04 0.96 1.05 1.02 1.05 1.10 1.35 1.73 1.92 2.06 2.07 1.93 1.84 1.67 1.57 1.53 1.53 1.70 1.62 1.41 1.35 1.29